Content
SEND FEEDBACK

Daily
Averages
Monthly
Summary
United States of America

VINTON, LOUISIANA


Home > North America > United States > Louisiana
Elevation: 20 feet     Latitude: 30 12N     Longitude: 093 35W

WEATHER
 
SELECT A DAY
Number of Records: 187,595;   Date Range: 11/22/06 - 7/26/14
 
SHARE

PRINT THIS DATA

[ ← Previous Day ]
WEATHER ALMANAC - SEPTEMBER 21, 2013
[ Next Day → ]
[ °C ]   °F
Weather ElementAverageHighLow
Temperature73.9 °F75.6 °F (3:55 am)72.3 °F (8:15 pm)
Dewpoint72.5 °F75.2 °F (3:55 am)69.8 °F (11:55 pm)
Humidity95.5 %99 % (2:35 am)88 % (11:55 pm)
Barometer29.78 in29.81 in (10:35 am)29.73 in (4:35 am)
Wind Speed7.4 mph15 mph (12:15 pm)
Wind Gust19.6 mph (12:15 pm)
Weather ElementAverage
Visibility7.7 mi
Wind DirectionSE (139.2 °)

Weather ElementTotal
Precipitation3.33 in
Cooling Degree Days8.9 (Base 65)
Growing Degree Days24 (Base 50)
Averaged from 71 records on September 21, 2013
WEATHER CONDITIONS BREAKOUT
WIND DIRECTION BREAKOUT
WEATHER BY HOUR - SEPTEMBER 21, 2013
[ °C ]   °F
Local TimeTemperatureDewpointHumidityBarometerVisibilityWind DirectionWind SpeedGust SpeedPrecipitationEventsConditions
12:35 AM74.8 °F74.3 °F98 %29.79 in2.0 miNNW (330°)5.8 mph0.79 inRain-ThunderstormHeavy Thunderstorms and Rain
12:55 AM75.0 °F74.3 °F98 %29.79 in4.0 miNorth (350°)4.6 mph0.96 inRain-ThunderstormHeavy Thunderstorms and Rain
1:15 AM74.8 °F74.3 °F98 %29.79 in2.5 miNorth (350°)3.5 mph0.18 inRain-ThunderstormHeavy Thunderstorms and Rain
1:35 AM75.0 °F74.5 °F98 %29.80 in1.8 miCalm0.45 inRain-ThunderstormHeavy Thunderstorms and Rain
1:55 AM74.8 °F74.3 °F98 %29.77 in4.0 miENE (60°)5.8 mph0.57 inRain-ThunderstormRain
2:15 AM75.4 °F74.8 °F98 %29.75 in10.0 miENE (60°)5.8 mphRainLight Rain
2:35 AM75.4 °F75.0 °F99 %29.76 in7.0 miCalm0.01 inRain-ThunderstormRain
2:55 AM75.4 °F74.8 °F98 %29.75 in7.0 miEast (90°)3.5 mph0.04 inRainRain
3:15 AM75.2 °F74.7 °F98 %29.76 in7.0 miCalm0.04 inRainRain
3:35 AM75.4 °F74.8 °F98 %29.77 in10.0 miESE (110°)5.8 mph0.06 inRainRain
3:55 AM75.6 °F75.2 °F99 %29.76 in10.0 miCalm0.07 inRainLight Rain
4:15 AM75.4 °F74.8 °F98 %29.75 in10.0 miCalmRainLight Rain
4:35 AM75.2 °F74.7 °F98 %29.73 in10.0 miCalmMostly Cloudy
4:55 AM75.2 °F74.7 °F98 %29.74 in10.0 miNW (320°)4.6 mphMostly Cloudy
5:15 AM75.2 °F74.7 °F98 %29.75 in5.0 miNW (320°)3.5 mphOvercast
5:35 AM75.2 °F74.5 °F98 %29.76 in2.0 miNorth (360°)3.5 mphOvercast
5:55 AM75.0 °F74.5 °F98 %29.76 in1.5 miNNW (340°)6.9 mphOvercast
6:15 AM74.7 °F74.3 °F99 %29.76 in2.5 miNNW (330°)8.1 mphOvercast
6:35 AM74.5 °F74.3 °F99 %29.76 in2.5 miNNW (340°)8.1 mphOvercast
6:55 AM74.3 °F73.9 °F99 %29.76 in3.0 miNNW (340°)10.4 mphOvercast
7:15 AM73.8 °F73.4 °F99 %29.77 in3.0 miNorth (350°)11.5 mph17.3 mphOvercast
7:35 AM73.4 °F72.7 °F98 %29.77 in4.0 miNorth (350°)10.4 mphOvercast
7:55 AM72.9 °F72.5 °F99 %29.78 in7.0 miNorth (360°)9.2 mphOvercast
8:15 AM72.9 °F72.0 °F97 %29.79 in10.0 miNorth (10°)9.2 mphRainLight Rain
8:35 AM73.0 °F72.0 °F96 %29.79 in10.0 miNorth (10°)8.1 mphOvercast
8:55 AM73.4 °F71.8 °F95 %29.79 in10.0 miNorth (10°)9.2 mph16.1 mphOvercast
9:15 AM73.6 °F71.8 °F94 %29.80 in10.0 miNorth (360°)11.5 mph17.3 mphOvercast
9:35 AM73.8 °F71.8 °F93 %29.80 in7.0 miNorth (10°)8.1 mph0.02 inRainRain
9:55 AM73.6 °F72.1 °F95 %29.80 in5.0 miNorth (350°)6.9 mph0.06 inRainLight Rain
10:15 AM73.4 °F72.5 °F97 %29.80 in10.0 miNorth (10°)6.9 mphRainLight Rain
10:35 AM73.9 °F72.5 °F95 %29.81 in7.0 miNorth (350°)6.9 mphRainRain
10:55 AM73.4 °F72.3 °F96 %29.81 in4.0 miNorth (350°)10.4 mphDrizzle
11:15 AM73.6 °F72.5 °F96 %29.81 in7.0 miNorth (350°)9.2 mph16.1 mphLight Drizzle
11:35 AM73.9 °F72.5 °F95 %29.81 in10.0 miNNE (20°)9.2 mphOvercast
11:55 AM74.5 °F72.1 °F92 %29.81 in10.0 miNNE (20°)11.5 mphOvercast
12:15 PM74.5 °F72.0 °F92 %29.81 in10.0 miNorth (360°)15.0 mph19.6 mphOvercast
12:35 PM74.3 °F71.6 °F91 %29.81 in7.0 miNorth (10°)10.4 mph17.3 mphRainRain
12:55 PM74.3 °F71.8 °F92 %29.80 in5.0 miNNE (20°)11.5 mph16.1 mph0.01 inRainLight Rain
1:15 PM74.7 °F72.1 °F92 %29.79 in10.0 miNorth (10°)11.5 mph18.4 mphRainLight Rain
1:35 PM74.8 °F72.5 °F92 %29.79 in7.0 miNorth (10°)8.1 mph16.1 mph0.01 inRainRain
1:55 PM74.3 °F72.5 °F94 %29.79 in10.0 miNorth (360°)8.1 mph0.01 inRainLight Rain
2:15 PM74.7 °F72.5 °F93 %29.78 in10.0 miNNE (20°)11.5 mphDrizzle
2:35 PM74.5 °F72.5 °F94 %29.78 in10.0 miNorth (360°)8.1 mphRainLight Rain
2:55 PM74.5 °F72.3 °F93 %29.77 in10.0 miNorth (360°)12.7 mphDrizzle
3:15 PM73.6 °F72.1 °F95 %29.77 in5.0 miNorth (360°)9.2 mph0.01 inDrizzle
3:35 PM73.9 °F72.7 °F96 %29.76 in5.0 miNorth (360°)6.9 mph0.01 inHeavy Drizzle
3:55 PM73.6 °F72.3 °F96 %29.76 in7.0 miNorth (10°)8.1 mph0.02 inDrizzle
4:15 PM73.4 °F72.0 °F95 %29.76 in7.0 miNorth (10°)11.5 mphDrizzle
4:35 PM73.4 °F71.6 °F94 %29.76 in10.0 miNorth (10°)10.4 mphDrizzle
4:55 PM73.8 °F71.6 °F93 %29.76 in10.0 miNorth (10°)8.1 mphDrizzle
5:15 PM72.7 °F70.9 °F94 %29.77 in7.0 miNNE (20°)12.7 mph16.1 mphDrizzle
5:35 PM72.5 °F70.7 °F94 %29.77 in10.0 miNNE (20°)10.4 mph17.3 mphLight Drizzle
5:55 PM72.9 °F71.2 °F95 %29.77 in10.0 miNorth (360°)5.8 mphRainRain
6:15 PM72.7 °F71.1 °F95 %29.77 in10.0 miNorth (10°)8.1 mphOvercast
6:35 PM72.7 °F70.9 °F94 %29.78 in10.0 miNorth (10°)8.1 mphOvercast
6:55 PM72.7 °F70.9 °F94 %29.78 in10.0 miNorth (10°)10.4 mphOvercast
7:15 PM72.5 °F70.7 °F94 %29.78 in7.0 miNorth (10°)8.1 mphOvercast
7:35 PM72.5 °F70.9 °F95 %29.78 in10.0 miNorth (10°)9.2 mphDrizzle
7:55 PM72.5 °F70.9 °F95 %29.79 in7.0 miNNE (20°)6.9 mph0.01 inDrizzle
8:15 PM72.3 °F70.9 °F95 %29.79 in7.0 miNNE (20°)6.9 mphDrizzle
8:35 PM72.5 °F71.2 °F96 %29.79 in7.0 miNNE (30°)5.8 mphDrizzle
8:55 PM72.5 °F71.2 °F96 %29.80 in10.0 miNNE (30°)3.5 mphLight Drizzle
9:15 PM72.5 °F71.6 °F97 %29.80 in10.0 miCalmOvercast
9:35 PM72.5 °F71.6 °F97 %29.80 in10.0 miNNE (20°)4.6 mphOvercast
9:55 PM72.9 °F71.6 °F96 %29.80 in10.0 miNorth (10°)6.9 mphOvercast
10:15 PM73.0 °F71.2 °F94 %29.80 in10.0 miNorth (10°)6.9 mphOvercast
10:35 PM72.9 °F71.4 °F95 %29.80 in10.0 miNorth (10°)5.8 mphMostly Cloudy
10:55 PM73.4 °F70.9 °F92 %29.80 in10.0 miNorth (10°)8.1 mphOvercast
11:15 PM73.4 °F70.7 °F91 %29.80 in10.0 miNorth (10°)10.4 mphOvercast
11:35 PM73.4 °F70.2 °F90 %29.80 in10.0 miNorth (360°)8.1 mphOvercast
11:55 PM73.6 °F69.8 °F88 %29.80 in10.0 miNNE (20°)8.1 mphOvercast
Hourly data recorded from KUXL, located miles away from Vinton, Louisiana







STORIES FROM OUR PARTNERS